This is the latest recevied weather packets stored in our database for station/object IU0KRR-10. If no packets are shown the sender has not sent any weather packets the latest 10 day(s).
| Time | Temp. | Humidity | Pressure | Rain* | Wind** | Luminosity | Snow |
|---|---|---|---|---|---|---|---|
| 1787574348 | 28.33° C | 27% | 876.9 hPa | - | - | - | - |
| 1787573448 | 28.33° C | 28% | 876.9 hPa | - | - | - | - |
| 1787572706 | 27.78° C | 26% | 876.9 hPa | - | - | - | - |
| 1787572543 | 27.78° C | 26% | 876.9 hPa | - | - | - | - |
| 1787571682 | 27.78° C | 26% | 876.8 hPa | - | - | - | - |
| 1787571642 | 27.78° C | 26% | 876.8 hPa | - | - | - | - |
| 1787570741 | 27.22° C | 29% | 876.7 hPa | - | - | - | - |
| 1787569882 | 27.22° C | 29% | 876.8 hPa | - | - | - | - |
| 1787569841 | 27.22° C | 29% | 876.8 hPa | - | - | - | - |
| 1787568940 | 26.67° C | 25% | 876.9 hPa | - | - | - | - |
| 1787568084 | 26.67° C | 27% | 877 hPa | - | - | - | - |
| 1787568039 | 26.67° C | 27% | 877 hPa | - | - | - | - |
| 1787567179 | 26.67° C | 29% | 877 hPa | - | - | - | - |
| 1787567138 | 26.67° C | 29% | 877 hPa | - | - | - | - |
| 1787566284 | 26.67° C | 30% | 877.1 hPa | - | - | - | - |
| 1787566237 | 26.67° C | 30% | 877.1 hPa | - | - | - | - |
| 1787565337 | 26.11° C | 33% | 877.1 hPa | - | - | - | - |
| 1787564436 | 26.11° C | 31% | 877.1 hPa | - | - | - | - |
| 1787563536 | 25.56° C | 32% | 877.2 hPa | - | - | - | - |
| 1787562678 | 25.56° C | 31% | 877.1 hPa | - | - | - | - |
| 1787562635 | 25.56° C | 31% | 877.1 hPa | - | - | - | - |
| 1787561782 | 25° C | 32% | 877.1 hPa | - | - | - | - |
| 1787561733 | 25° C | 32% | 877.1 hPa | - | - | - | - |
| 1787560833 | 25° C | 32% | 877 hPa | - | - | - | - |
| 1787559933 | 25° C | 35% | 876.8 hPa | - | - | - | - |
* Rain since midnight (hover to see other rain measurements)
** Current wind speed in m/s (hover to see current wind gust speed)